This demonstration page uses our WeatherBlox Daily Observations layout. Learn more.

Left ArrowRight Arrow

Hourly Observations for April 22, 2018

Temp ( °F °C ) Dew Point ( °F °C ) Humidity (%) Winds ( mph kmh ) Pressure ( in mb ) Visibility ( mi km ) Precip ( " mm )
12:53 am 00:53 Clear 50 10 26 -3.3 39 39 ENE 3 6 30.34 1027 10 16 0.00 0.00
1:53 am 01:53 Clear 49 9.4 26 -3.3 41 41 Calm 30.34 1027 10 16 0.00 0.00
2:53 am 02:53 Clear 47 8.3 28 -2.2 48 48 E 3 6 30.32 1027 10 16 0.00 0.00
3:53 am 03:53 Clear 47 8.3 27 -2.8 46 46 NE 3 6 30.31 1026 10 16 0.00 0.00
4:53 am 04:53 Partly Cloudy 47 8.3 28 -2.2 48 48 ENE 5 7 30.29 1026 10 16 0.00 0.00
5:53 am 05:53 Clear 47 8.3 29 -1.7 50 50 Calm 30.30 1026 10 16 0.00 0.00
6:53 am 06:53 Sunny 45 7.2 34 1.1 66 66 Calm 30.32 1027 10 16 0.00 0.00
7:53 am 07:53 Sunny 47 8.3 30 -1.1 52 52 Calm 30.33 1027 10 16 0.00 0.00
8:53 am 08:53 Partly Cloudy 48 8.9 31 -0.6 52 52 ENE 5 7 30.32 1027 10 16 0.00 0.00
9:53 am 09:53 Partly Cloudy 51 10.6 32 0 48 48 ENE 5 7 30.32 1027 10 16 0.00 0.00
10:53 am 10:53 Sunny 55 12.8 32 0 42 42 NE 6 9 30.32 1027 10 16 0.00 0.00
11:53 am 11:53 Sunny 57 13.9 34 1.1 42 42 ENE 12 19 30.30 1026 10 16 0.00 0.00
12:53 pm 12:53 Sunny 59 15 34 1.1 39 39 E 10 17 30.29 1026 10 16 0.00 0.00
1:53 pm 13:53 Sunny 61 16.1 35 1.7 38 38 NE 9 15 30.27 1025 10 16 0.00 0.00
2:53 pm 14:53 Sunny 63 17.2 36 2.2 37 37 E 9 15 30.25 1025 10 16 0.00 0.00
3:53 pm 15:53 Sunny 64 17.8 34 1.1 33 33 ENE 7 11 30.23 1024 10 16 0.00 0.00
4:53 pm 16:53 Sunny 66 18.9 29 -1.7 25 25 E 12 19 30.21 1023 10 16 0.00 0.00
5:53 pm 17:53 Sunny 66 18.9 30 -1.1 26 26 ENE 13 20 30.19 1022 10 16 0.00 0.00
6:53 pm 18:53 Sunny 64 17.8 31 -0.6 29 29 E 12 19 30.18 1022 10 16 0.00 0.00
7:53 pm 19:53 Sunny 61 16.1 32 0 34 34 E 8 13 30.18 1022 10 16 0.00 0.00
8:53 pm 20:53 Clear 56 13.3 32 0 40 40 ENE 7 11 30.18 1022 10 16 0.00 0.00
9:53 pm 21:53 Clear 54 12.2 34 1.1 47 47 ENE 6 9 30.17 1022 10 16 0.00 0.00
10:53 pm 22:53 Clear 55 12.8 34 1.1 45 45 ENE 3 6 30.17 1022 10 16 0.00 0.00
11:53 pm 23:53 Clear 51 10.6 40 4.4 66 66 ENE 3 6 30.16 1022 10 16 0.00 0.00

Powered by AerisWeather